This is the latest recevied weather packets stored in our database for station/object KD4EED. If no packets are shown the sender has not sent any weather packets the latest 10 day(s).
| Time | Temp. | Humidity | Pressure | Rain* | Wind** | Luminosity | Snow |
|---|---|---|---|---|---|---|---|
| 1788128828 | 31.11° C | 51% | 1008.5 hPa | - | - | 448 W/m² | - |
| 1788128524 | 30.56° C | 52% | 1008.8 hPa | - | - | 461 W/m² | - |
| 1788128219 | 30.56° C | 52% | 1008.7 hPa | - | - | 472 W/m² | - |
| 1788127916 | 30.56° C | 53% | 1008.8 hPa | - | - | 488 W/m² | - |
| 1788127611 | 31.11° C | 51% | 1008.7 hPa | - | - | 505 W/m² | - |
| 1788127310 | 30.56° C | 52% | 1008.7 hPa | - | - | 520 W/m² | - |
| 1788127009 | 30.56° C | 54% | 1009 hPa | - | - | 534 W/m² | - |
| 1788126703 | 31.11° C | 53% | 1009.1 hPa | - | - | 541 W/m² | - |
| 1788126399 | 31.11° C | 51% | 1008.9 hPa | - | - | 550 W/m² | - |
| 1788126099 | 31.11° C | 49% | 1009.1 hPa | - | - | 560 W/m² | - |
| 1788125798 | 31.11° C | 52% | 1009.2 hPa | - | - | 569 W/m² | - |
| 1788125494 | 30.56° C | 53% | 1009.2 hPa | - | - | 578 W/m² | - |
| 1788125190 | 30.56° C | 53% | 1009.1 hPa | - | - | 588 W/m² | - |
| 1788124885 | 31.11° C | 51% | 1009.4 hPa | - | - | 598 W/m² | - |
| 1788124579 | 30.56° C | 52% | 1009.5 hPa | - | - | 605 W/m² | - |
| 1788124279 | 30.56° C | 51% | 1009.7 hPa | - | - | 600 W/m² | - |
| 1788123974 | 31.11° C | 51% | 1009.5 hPa | - | - | 618 W/m² | - |
| 1788123674 | 31.11° C | 53% | 1009.5 hPa | - | - | 623 W/m² | - |
| 1788123371 | 31.11° C | 50% | 1009.5 hPa | - | - | 631 W/m² | - |
| 1788123067 | 31.11° C | 51% | 1009.5 hPa | - | - | 637 W/m² | - |
| 1788122766 | 31.11° C | 51% | 1009.7 hPa | - | - | 643 W/m² | - |
| 1788122465 | 30.56° C | 51% | 1009.7 hPa | - | - | 644 W/m² | - |
| 1788122161 | 31.11° C | 50% | 1009.7 hPa | - | - | 644 W/m² | - |
| 1788121856 | 31.67° C | 48% | 1009.5 hPa | - | - | 645 W/m² | - |
| 1788121556 | 31.67° C | 49% | 1009.6 hPa | - | - | 641 W/m² | - |
* Rain since midnight (hover to see other rain measurements)
** Current wind speed in m/s (hover to see current wind gust speed)